www.pogodaiklimat.ru

Погода и климат >> Архив погоды >> Финляндия >> Кокар Богскар


ПОГОДА в Кокар Богскар

  • Прогноз погоды в Кокар Богскар
  • Монитор погоды в Кокар Богскар

АРХИВ ПОГОДЫ в Кокар Богскар

Время (UTC), дата Ветер
(напр.,м/с)
 
Видим.   Явления Облачность Т
(С)
Тd
(С)
f
(%)
Тe
(С)
Тes
(С)
Комфортность P
(гПа)
Po
(гПа)
Тmin
(С)
Tmax
(С)
R
(мм)
R24
(мм)
S
(см)
07 17.09 СЗ 4-6
{7}
н/о н/о +10.7 +5.9 72 +8 +8 998.2 996.3
08 17.09 СЗ 4-6
{7}
н/о н/о +10.7 +6.9 77 +8 +8 998.2 996.3
09 17.09 СЗ 3-5
{6}
н/о н/о +10.7 +6.4 75 +9 +9 998.1 996.2
10 17.09 СЗ 4-6
{6}
н/о н/о +10.8 +5.8 71 +8 +8 998.0 996.1
11 17.09 СЗ 4 н/о н/о +11.0 +4.0 62 +9 +9 997.9 996.0
12 17.09 С 9-11
{11}
н/о н/о +10.5 +5.6 72 +7 +7 998.2 996.3
13 17.09 С 6 н/о н/о +10.3 +6.8 79 +7 +7 998.0 996.1
14 17.09 С 6 н/о н/о +9.5 +6.0 79 +6 +6 998.2 996.3
15 17.09 С 4-5
{5}
н/о н/о +10.0 +6.2 77 +7 +7 998.1 996.2
16 17.09 С 6 н/о н/о +10.3 +6.6 78 +7 +7 998.3 996.4
17 17.09 СВ 7-9
{12}
н/о н/о +10.2 +7.5 83 +7 +7 998.6 996.7
18 17.09 С 10-11
{11}
н/о н/о +10.7 +6.9 77 +7 +7 999.3 997.4 +9.1 +11.1
19 17.09 С 9 н/о н/о +10.9 +6.6 75 +7 +7 999.6 997.7
20 17.09 С 8 н/о н/о +11.1 +6.2 72 +8 +8 1000.1 998.2
21 17.09 С 11-13
{14}
н/о н/о +10.0 +5.2 72 +5 +5 1000.6 998.7
22 17.09 С 5 н/о н/о +10.8 +6.1 73 +8 +8 1000.7 998.8
23 17.09 С 9 н/о н/о +10.8 +6.0 72 +7 +7 1000.9 999.0
00 18.09 С 9-11
{11}
н/о н/о +10.1 +5.9 75 +6 +6 1001.2 999.3
01 18.09 С 8-10
{11}
н/о н/о +10.3 +7.4 82 +6 +6 1001.2 999.3
02 18.09 С 8-10
{12}
н/о н/о +10.6 +7.6 82 +7 +7 1001.7 999.8
03 18.09 С 12-14
{14}
н/о н/о +10.6 +6.9 78 +6 +6 1002.2 1000.3
04 18.09 С 11 н/о н/о +10.6 +7.6 82 +6 +6 1002.5 1000.6
05 18.09 С 11-12
{13}
н/о н/о +10.7 +6.9 77 +6 +6 1003.4 1001.5
06 18.09 С 10-11
{14}
н/о н/о +10.1 +6.5 78 +6 +6 1004.2 1002.3 +9.5 +11.2
07 18.09 С 9-11
{11}
н/о н/о +10.6 +5.4 70 +7 +7 1004.9 1003.0
08 18.09 С 7-8
{10}
н/о н/о +10.6 +6.0 73 +7 +7 1005.7 1003.8
09 18.09 С 7-8
{8}
н/о н/о +10.5 +6.7 77 +7 +7 1006.7 1004.7
10 18.09 С 7 н/о н/о +10.5 +6.3 75 +7 +7 1007.3 1005.3
11 18.09 С 6-8
{9}
н/о н/о +10.7 +4.6 66 +8 +8 1008.1 1006.1
12 18.09 С 9-10
{10}
н/о н/о +11.2 +3.8 60 +8 +8 1008.9 1007.0
13 18.09 С 8 н/о н/о +11.4 +4.4 62 +8 +8 1009.2 1007.3
14 18.09 С 6-9
{9}
н/о н/о +11.6 +3.8 59 +9 +9 1009.7 1007.8
15 18.09 С 10-13
{13}
н/о н/о +10.9 +7.3 78 +7 +7 1010.3 1008.3
16 18.09 С 9 н/о н/о +10.7 +5.0 68 +7 +7 1010.8 1008.8
17 18.09 С 9 н/о н/о +10.5 +6.4 76 +7 +7 1011.2 1009.3
18 18.09 С 8-10
{10}
н/о н/о +10.3 +6.0 75 +6 +6 1012.0 1010.0 +10.1 +11.6
19 18.09 С 7 н/о н/о +10.7 +6.4 75 +7 +7 1012.4 1010.5
20 18.09 С 7-7
{13}
н/о н/о +9.1 +5.7 79 +5 +5 1013.0 1011.0
21 18.09 С 5-7
{7}
н/о н/о +9.9 +6.1 77 +7 +7 1013.1 1011.2
22 18.09 С 5-6
{7}
н/о н/о +10.0 +5.5 74 +7 +7 1013.2 1011.2
23 18.09 СЗ 4 н/о н/о +10.4 +5.3 71 +8 +8 1013.2 1011.3
00 19.09 СЗ 6-8
{8}
н/о н/о +10.1 +4.9 70 +7 +7 1013.5 1011.5
01 19.09 СЗ 6 н/о н/о +10.4 +5.0 69 +7 +7 1013.6 1011.6
02 19.09 СЗ 5-8
{9}
н/о н/о +9.2 +4.5 72 +6 +6 1013.9 1011.9
03 19.09 СЗ 5-7
{9}
н/о н/о +8.6 +5.1 79 +5 +5 1013.8 1011.9
04 19.09 СЗ 4 н/о н/о +9.4 +4.3 70 +7 +7 1013.7 1011.7
05 19.09 СЗ 7 н/о н/о +9.4 +4.2 70 +6 +6 1013.8 1011.8
06 19.09 З 4-6
{9}
н/о н/о +8.7 +5.6 81 +6 +6 1014.2 1012.3 +8.2 +10.7
07 19.09 СЗ 9-17
{17}
н/о н/о +8.5 +6.5 87 +4 +4 1014.8 1012.8
08 19.09 С 14-15
{18}
н/о н/о +8.2 +4.6 78 +2 +2 1015.6 1013.7
09 19.09 -11
{14}
н/о н/о +9.0 +4.2 72 1016.5 1014.5
10 19.09 С 11 н/о н/о +9.5 +4.3 70 +5 +5 1016.7 1014.8
11 19.09 С 11 н/о н/о +9.5 +4.3 70 +5 +5 1017.3 1015.3
12 19.09 СЗ 6-12
{12}
н/о н/о +9.6 +4.4 70 +6 +6 1017.6 1015.6
13 19.09 С 11 н/о н/о +9.8 +2.3 60 +5 +5 1018.0 1016.0
14 19.09 СЗ 11 н/о н/о +9.2 +2.6 63 +4 +4 1018.3 1016.3
15 19.09 С 11-13
{16}
н/о н/о +9.0 +2.8 65 +4 +4 1018.9 1017.0
16 19.09 С 14 н/о н/о +8.3 +2.6 67 +3 +3 1019.3 1017.3
17 19.09 С 13 н/о н/о +9.0 +2.5 64 +4 +4 1019.6 1017.6
18 19.09 С 10-13
{15}
н/о н/о +9.1 +2.1 62 +5 +5 1019.9 1017.9 +7.9 +10.1
19 19.09 С 10-12
{17}
н/о н/о +9.3 +1.7 59 +5 +5 1020.0 1018.1
20 19.09 С 6-9
{11}
н/о н/о +8.9 +2.6 65 +5 +5 1020.1 1018.1
21 19.09 С 5-6
{8}
н/о н/о +9.5 +2.8 63 +7 +7 1020.4 1018.5
22 19.09 С 4 н/о н/о +9.7 +1.8 58 +7 +7 1020.6 1018.6
23 19.09 СЗ 4-6
{8}
н/о н/о +10.2 +0.5 51 +8 +8 1020.3 1018.4
00 20.09 СЗ 8-12
{13}
н/о н/о +8.8 +1.3 59 +5 +5 1020.1 1018.1
01 20.09 штиль 0-12
{16}
н/о н/о +8.0 +3.4 73 +7 +7 1020.5 1018.6
02 20.09 З 1 н/о н/о +8.7 +3.0 67 +8 +8 1019.9 1017.9
03 20.09 З 3-5
{5}
н/о н/о +9.3 +3.8 68 +7 +7 1019.4 1017.5
04 20.09 З 4 н/о н/о +9.9 +4.8 71 +7 +7 1019.3 1017.4
05 20.09 З 5-7
{9}
н/о н/о +9.7 +5.6 76 +7 +7 1019.0 1017.0
06 20.09 З 4-6
{7}
н/о н/о +9.8 +4.4 69 +7 +7 1018.9 1016.9 +7.7 +10.4
07 20.09 З 4-6
{7}
н/о н/о +9.8 +2.9 62 +7 +7 1019.1 1017.2
08 20.09 З 4-6
{7}
н/о н/о +9.6 +2.8 63 +7 +7 1019.1 1017.2
09 20.09 З 4-7
{7}
н/о н/о +9.5 +3.1 64 +7 +7 1019.1 1017.1
10 20.09 З 4 н/о н/о +9.2 +3.6 68 +6 +6 1018.8 1016.9
11 20.09 З 4 н/о н/о +9.2 +3.7 68 +6 +6 1018.5 1016.5
12 20.09 З 4-5
{6}
н/о н/о +9.8 +4.0 67 +7 +7 1018.2 1016.2
13 20.09 ЮЗ 4 н/о н/о +10.3 +3.8 64 +8 +8 1017.6 1015.6
14 20.09 ЮЗ 6 н/о н/о +10.5 +5.5 71 +7 +7 1016.7 1014.8
15 20.09 ЮЗ 7-10
{10}
н/о н/о +10.9 +5.3 68 +8 +8 1016.0 1014.1
16 20.09 ЮЗ 8 н/о н/о +11.1 +5.2 67 +8 +8 1015.6 1013.7
17 20.09 З 6 н/о н/о +10.6 +4.5 66 +8 +8 1015.3 1013.3
18 20.09 ЮЗ 9-11
{11}
н/о н/о +9.8 +6.3 79 +6 +6 1014.5 1012.6 +9.1 +11.1
19 20.09 ЮЗ 9-13
{13}
н/о н/о +10.7 +6.7 76 +7 +7 1013.7 1011.8
20 20.09 З 8 н/о н/о +11.4 +8.3 81 +8 +8 1013.3 1011.4
21 20.09 З 5-8
{12}
н/о н/о +11.4 +8.9 85 +9 +9 1012.8 1010.8
22 20.09 З 5 н/о н/о +11.5 +9.1 85 +9 +9 1012.5 1010.6
23 20.09 З 6 н/о н/о +12.0 +9.6 85 +9 +9 1012.5 1010.5
00 21.09 З 4-6
{8}
н/о н/о +12.0 +9.9 87 +10 +10 1012.1 1010.2
01 21.09 З 4-6
{7}
н/о н/о +11.9 +10.1 89 +10 +10 1011.9 1010.0
02 21.09 З 5 н/о н/о +12.2 +10.2 88 +10 +10 1011.8 1009.9
03 21.09 З 5-7
{9}
н/о н/о +12.1 +10.2 88 +10 +10 1011.3 1009.4
04 21.09 СЗ 6 н/о н/о +12.2 +10.0 86 +9 +9 1011.4 1009.5
05 21.09 СЗ 6-8
{9}
н/о н/о +12.2 +10.2 88 +9 +9 1011.2 1009.2
06 21.09 СЗ 7-9
{10}
н/о н/о +12.6 +10.1 85 +10 +10 1011.0 1009.1 +9.5 +12.7
07 21.09 З 7 н/о н/о +12.6 +9.7 82 +10 +10 1011.3 1009.3
08 21.09 З 7 н/о н/о +12.5 +9.4 81 +10 +10 1011.4 1009.5
09 21.09 СЗ 8-11
{11}
н/о н/о +13.1 +9.1 77 +10 +10 1011.5 1009.6
10 21.09 СЗ 9 н/о н/о +13.1 +9.1 77 +10 +10 1011.8 1009.9
11 21.09 СЗ 9 н/о н/о +13.1 +9.0 76 +10 +10 1012.3 1010.3
12 21.09 СЗ 8-12
{13}
н/о н/о +13.2 +9.2 77 +10 +10 1012.7 1010.8
13 21.09 СЗ 7-12
{12}
н/о н/о +13.4 +9.3 76 +11 +11 1012.9 1011.0
14 21.09 СЗ 7-9
{12}
н/о н/о +13.6 +9.1 74 +11 +11 1013.0 1011.1
15 21.09 СЗ 9-11
{11}
н/о н/о +14.1 +8.5 69 +12 +12 1013.1 1011.2
16 21.09 СЗ 8 н/о н/о +14.4 +8.3 67 +12 +12 1012.8 1010.9
17 21.09 СЗ 6 н/о н/о +13.1 +9.6 79 +11 +11 1013.2 1011.3
18 21.09 З 5-8
{8}
н/о н/о +14.2 +9.9 75 +13 +13 1012.9 1011.0 +12.5 +14.4
19 21.09 СЗ 7 н/о н/о +13.7 +9.7 77 +11 +11 1013.1 1011.2
20 21.09 СЗ 6 н/о н/о +13.3 +10.3 82 +11 +11 1013.0 1011.0
21 21.09 С 6-8
{9}
н/о н/о +12.5 +10.6 88 +10 +10 1013.4 1011.5
22 21.09 С 5 н/о н/о +12.1 +10.5 90 +10 +10 1013.9 1012.0
23 21.09 С 4-5
{7}
н/о н/о +12.0 +9.8 86 +10 +10 1013.7 1011.8
00 22.09 СЗ 4-5
{5}
н/о н/о +11.8 +9.7 87 +10 +10 1013.6 1011.7
01 22.09 СЗ 4 н/о н/о +11.6 +9.9 89 +9 +9 1013.9 1012.0
02 22.09 С 7-8
{8}
н/о н/о +11.5 +9.7 89 +8 +8 1014.1 1012.1
03 22.09 СВ 8-10
{10}
н/о н/о +10.2 +7.7 84 +6 +6 1014.6 1012.6
04 22.09 СВ 6 н/о н/о +9.9 +7.3 84 +6 +6 1014.8 1012.9
05 22.09 В 7 н/о н/о +8.9 +6.3 84 +5 +5 1015.5 1013.5
06 22.09 СВ 6-7
{8}
н/о н/о +9.0 +4.8 75 +5 +5 1016.2 1014.2 +8.6 +14.7
07 22.09 СВ 6 н/о н/о +8.7 +4.8 76 +5 +5 1016.8 1014.8
08 22.09 СВ 8 н/о н/о +8.9 +2.1 62 +5 +5 1017.5 1015.5
09 22.09 СВ 8-12
{12}
н/о н/о +9.1 -0.5 51 +5 +5 1018.2 1016.3
10 22.09 С 6 н/о н/о +9.3 -0.1 52 +6 +6 1018.7 1016.7
11 22.09 С 7 н/о н/о +9.4 +1.5 58 +6 +6 1019.2 1017.3
12 22.09 С 7-8
{9}
н/о н/о +9.8 +1.8 57 +6 +6 1019.7 1017.7
13 22.09 С 7 н/о н/о +9.9 +2.7 61 +6 +6 1019.8 1017.8
14 22.09 С 8 н/о н/о +10.0 -0.2 49 +6 +6 1019.9 1017.9
15 22.09 С 8-9
{10}
н/о н/о +10.2 +0.7 52 +7 +7 1020.5 1018.5
16 22.09 С 9-11
{11}
н/о н/о +10.0 +0.8 53 +6 +6 1020.7 1018.8
17 22.09 С 9 н/о н/о +9.9 +0.8 53 +6 +6 1021.1 1019.2
18 22.09 С 8-10
{10}
н/о н/о +9.9 +2.0 58 +6 +6 1021.7 1019.8 +8.5 +10.3
19 22.09 С 8-10
{10}
н/о н/о +9.9 +3.1 63 +6 +6 1022.1 1020.2
20 22.09 С 8-9
{10}
н/о н/о +10.0 +2.9 61 +6 +6 1022.4 1020.5
21 22.09 СВ 6-8
{8}
н/о н/о +9.9 +0.3 51 +7 +7 1022.9 1020.9
22 22.09 СВ 5 н/о н/о +9.9 +0.1 50 +7 +7 1023.2 1021.3
23 22.09 СВ 3 н/о н/о +9.8 -0.2 50 +8 +8 1023.6 1021.6
00 23.09 В 3-4
{6}
н/о н/о +9.6 -0.5 49 +8 +8 1023.9 1022.0
01 23.09 СВ 2 н/о н/о +9.6 -0.2 50 +8 +8 1024.0 1022.1
02 23.09 СВ 2 н/о н/о +9.5 -0.5 50 +8 +8 1024.3 1022.3
03 23.09 СВ 2-3
{4}
н/о н/о +9.6 -0.4 50 +8 +8 1024.4 1022.4
04 23.09 С 2-4
{4}
н/о н/о +9.5 -0.5 50 +8 +8 1024.2 1022.3
05 23.09 С 3 н/о н/о +9.6 +0.2 52 +8 +8 1024.7 1022.7
06 23.09 СВ 3-4
{4}
н/о н/о +9.6 +1.1 55 +8 +8 1024.8 1022.8 +9.4 +10.2
07 23.09 СВ 2 н/о н/о +9.6 +1.7 58 +8 +8 1025.0 1023.0
08 23.09 СВ 4-5
{5}
н/о н/о +9.1 +3.2 67 +6 +6 1025.3 1023.3
09 23.09 СВ 3-4
{6}
н/о н/о +9.1 +1.8 60 +7 +7 1025.5 1023.6
10 23.09 СВ 2 н/о н/о +9.1 +2.1 62 +8 +8 1025.3 1023.3
11 23.09 В 1 н/о н/о +9.4 +2.1 60 +9 +9 1025.0 1023.0
12 23.09 СВ 1-2
{2}
н/о н/о +9.3 +2.0 60 +9 +9 1024.6 1022.6
13 23.09 штиль 0 н/о н/о +9.5 +1.7 58 +9 +9 1024.4 1022.4
14 23.09 штиль 0-2
{2}
н/о н/о +10.9 +1.7 53 +11 +11 1023.8 1021.9
15 23.09 штиль 0-1
{2}
н/о н/о +11.3 +1.5 51 +11 +11 1023.2 1021.3
16 23.09 ЮЗ 1 н/о н/о +10.3 +0.6 51 +10 +10 1022.8 1020.9
17 23.09 ЮЗ 2-2
{3}
н/о н/о +9.6 +0.8 54 +8 +8 1022.7 1020.7
18 23.09 Ю 3-4
{4}
н/о н/о +9.7 +0.8 54 +8 +8 1022.6 1020.6 +8.9 +11.5
19 23.09 Ю 3 н/о н/о +9.8 +1.0 54 +8 +8 1022.4 1020.5
20 23.09 Ю 4 н/о н/о +10.0 +2.1 58 +8 +8 1022.2 1020.3
21 23.09 Ю 4-5
{5}
н/о н/о +10.1 +1.9 57 +8 +8 1022.0 1020.1
22 23.09 Ю 4-6
{6}
н/о н/о +10.2 +1.8 56 +8 +8 1021.7 1019.8
23 23.09 ЮЗ 4 н/о н/о +10.3 +2.0 56 +8 +8 1021.5 1019.5
00 24.09 ЮЗ 3-4
{5}
н/о н/о +10.4 +1.8 55 +9 +9 1021.2 1019.3
01 24.09 ЮЗ 4-5
{5}
н/о н/о +10.5 +3.0 60 +8 +8 1020.9 1019.0
02 24.09 ЮЗ 3-4
{5}
н/о н/о +10.6 +2.9 59 +9 +9 1020.7 1018.7
03 24.09 ЮЗ 4-5
{5}
н/о н/о +10.7 +3.9 63 +8 +8 1020.1 1018.1
04 24.09 ЮЗ 4 н/о н/о +10.8 +4.2 64 +9 +9 1019.9 1017.9
05 24.09 ЮЗ 6 н/о н/о +10.3 +4.1 65 +7 +7 1019.5 1017.6
06 24.09 Ю 5-5
{6}
н/о н/о +10.3 +4.9 69 +7 +7 1019.3 1017.3 +9.7 +10.9
07 24.09 ЮЗ 4 н/о н/о +10.4 +4.2 65 +8 +8 1019.4 1017.5
08 24.09 ЮЗ 5 н/о н/о +10.0 +5.9 76 +7 +7 1019.5 1017.5

 

Местоположение метеостанции Кокар Богскар (Финляндия): широта 59.51 долгота 20.36 высота над уровнем моря 4 м.

В архиве по умолчанию представлена погода в Кокар Богскар за последнюю неделю. Архивные данные за месяц целиком и за предыдущие месяцы, начиная с января 2011 года, Вы можете получить, выбрав интересующий диапазон дат из раскрывающегося списка и нажав кнопку "Ввод!".


*Определитесь, кто Вы:
робот инопланетянин человек

Внимание! Время в таблицах - всемирное. Для получения местного времени необходимо прибавить поправку, которая равна 1 ч.

Смотрите также архив погоды в соседних городах и на ближайших метеорологических станциях:

Погода в Свенска Хогарна (Швеция) (49 км)
Погода в Свенска Хогарна АМС (Швеция) (49 км)
Погода в Лемланд Нихамн (Финляндия) (55 км)
Погода в Содерарме (Швеция) (59 км)
Погода на Острове Уто (Финляндия) (64 км)
Погода в Логнес Харбор (Финляндия) (68 км)
Погода в Йомала аэропорту (Финляндия) (73 км)
Погода в Йомале (Финляндия) (77 км)
Погода в Кумлинге (Финляндия) (86 км)
Погода в Ставстане (Швеция) (97 км)

Пояснения к столбцам:

Ветер - указаны скорость ветра в м/с - средняя за 10 мин, порывы в срок и между сроками (в фигурных скобках) и направление, откуда дует ветер: С - северный, СВ - северо-восточный, В - восточный, ЮВ - юго-восточный, Ю - южный, ЮЗ - юго-западный, З - западный, СЗ - северо-западный.
Видимость - горизонтальная дальность видимости в метрах или километрах. При видимости от 1 до 10 км при отсутствии осадков обычно наблюдается дымка, при ухудшении видимости до 1 км и менее - туман. В сухую погоду видимость может ухудшаться дымом, пылью или мглою.
Явления - указаны атмосферные явления, наблюдавшиеся в срок или в последний час перед сроком; фигурными скобками обозначены явления, наблюдавшиеся между сроками (за 1-3 часа до срока); квадратными скобками обозначены град или гололедные отложения с указанием их диаметра в мм.
Облачность - указаны через наклонную черту общая и нижняя облачность в баллах и высота нижней границы облаков в метрах; квадратными скобками обозначены формы облаков: Ci - перистые, Cs - перисто-слоистые, Cc - перисто-кучевые, Ac - высококучевые, As - высокослоистые, Sc - слоисто-кучевые, Ns - слоисто-дождевые, Cu - кучевые, Cb - кучево-дождевые. Подробнее классификацию облаков см. в Атласе облаков (PDF).
T - Температура воздуха - температура, измеренная на высоте 2 м над землей.
Td - Температура точки росы - температура, при понижении до которой содержащийся в воздухе водяной пар достигнет насыщения.
f - Относительная влажность воздуха - влажноcть воздуха, измеренная на высоте 2 м над землей.
Te - Эффективная температура - температура, которую ощущает одетый по сезону человек в тени. Характеристика душности погоды. При расчете учитывается влияние влажности воздуха и скорости ветра на теплоощущения человека.
Tes - Эффективная температура на солнце - температура, которую ощущает человек, с поправкой на солнечный нагрев. Характеристика знойности погоды. Зависит от высоты солнца над горизонтом, облачности и скорости ветра. Ночью, в пасмурную погоду, а также при ветре 12 м/с и более поправка равна нулю.
P - Атмосферное давление - приведенное к уровню моря атмосферное давление.
Po - Атмосферное давление - измеренное на уровне метеостанции атмосферное давление.
Tmin - Минимальная температура - минимум температуры воздуха на высоте 2 м над землей.
Tmax - Максимальная температура - максимум температуры воздуха на высоте 2 м над землей.
R - Количество осадков - Количество выпавших осадков за период времени, мм. При наведении курсора мыши на число - период времени, за который выпало указанное количество осадков.
R24 - Количество осадков - Количество выпавших осадков за 24 часа, мм.
S - Снежный покров - Высота снежного покрова, см. При наведении курсора мыши на число - состояние снежного покрова и степень покрытия местности в баллах.